date,time,SUV Intensity [MED/Hr],UV Index,Daily total [MED],Since Last [MED]
15/10/2022,00:01:32,0.000,0.0,0.0,0.0
15/10/2022,00:02:31,-0.001,0.0,0.0,0.0
15/10/2022,00:03:32,-0.001,0.0,0.0,0.0
15/10/2022,00:04:31,0.001,0.0,0.0,0.0
15/10/2022,00:05:32,0.000,0.0,0.0,0.0
15/10/2022,00:06:31,-0.001,0.0,0.0,0.0
15/10/2022,00:07:32,-0.001,0.0,0.0,0.0
15/10/2022,00:08:31,0.000,0.0,0.0,0.0
15/10/2022,00:09:31,0.000,0.0,0.0,0.0
15/10/2022,00:10:31,0.001,0.0,0.0,0.0
15/10/2022,00:11:31,-0.001,0.0,0.0,0.0
15/10/2022,00:12:31,-0.000,0.0,0.0,0.0
15/10/2022,00:13:32,0.001,0.0,0.0,0.0
15/10/2022,00:14:31,0.000,0.0,0.0,0.0
15/10/2022,00:15:31,0.000,0.0,0.0,0.0
15/10/2022,00:16:31,-0.001,0.0,0.0,0.0
15/10/2022,00:17:31,-0.001,0.0,0.0,0.0
15/10/2022,00:18:31,0.000,0.0,0.0,0.0
15/10/2022,00:19:31,-0.001,0.0,0.0,0.0
15/10/2022,00:20:31,0.000,0.0,0.0,0.0
15/10/2022,00:21:31,-0.001,0.0,0.0,0.0
15/10/2022,00:22:31,0.000,0.0,0.0,0.0
15/10/2022,00:23:32,0.000,0.0,0.0,0.0
15/10/2022,00:24:31,0.000,0.0,0.0,0.0
15/10/2022,00:25:32,-0.001,0.0,0.0,0.0
15/10/2022,00:26:31,-0.001,0.0,0.0,0.0
15/10/2022,00:27:32,0.000,0.0,0.0,0.0
15/10/2022,00:28:31,0.001,0.0,0.0,0.0
15/10/2022,00:29:32,-0.002,0.0,0.0,0.0
15/10/2022,00:30:32,0.001,0.0,0.0,0.0
15/10/2022,00:31:31,0.000,0.0,0.0,0.0
15/10/2022,00:32:31,-0.001,0.0,0.0,0.0
15/10/2022,00:33:32,0.000,0.0,0.0,0.0
15/10/2022,00:34:31,-0.000,0.0,0.0,0.0
15/10/2022,00:35:31,0.000,0.0,0.0,0.0
15/10/2022,00:36:32,-0.001,0.0,0.0,0.0
15/10/2022,00:37:31,0.001,0.0,0.0,0.0
15/10/2022,00:38:32,0.001,0.0,0.0,0.0
15/10/2022,00:39:31,0.001,0.0,0.0,0.0
15/10/2022,00:40:32,0.001,0.0,0.0,0.0
15/10/2022,00:41:31,-0.001,0.0,0.0,0.0
15/10/2022,00:42:32,-0.001,0.0,0.0,0.0
15/10/2022,00:43:31,0.000,0.0,0.0,0.0
15/10/2022,00:44:31,-0.001,0.0,0.0,0.0
15/10/2022,00:45:31,-0.000,0.0,0.0,0.0
15/10/2022,00:46:31,0.000,0.0,0.0,0.0
15/10/2022,00:47:31,0.000,0.0,0.0,0.0
15/10/2022,00:48:31,0.001,0.0,0.0,0.0
15/10/2022,00:49:31,-0.001,0.0,0.0,0.0
15/10/2022,00:50:31,0.000,0.0,0.0,0.0
15/10/2022,00:51:31,0.000,0.0,0.0,0.0
15/10/2022,00:52:32,0.000,0.0,0.0,0.0
15/10/2022,00:53:31,0.001,0.0,0.0,0.0
15/10/2022,00:54:32,0.000,0.0,0.0,0.0
15/10/2022,00:55:32,-0.000,0.0,0.0,0.0
15/10/2022,00:56:31,0.000,0.0,0.0,0.0
15/10/2022,00:57:32,0.001,0.0,0.0,0.0
15/10/2022,00:58:31,0.000,0.0,0.0,0.0
15/10/2022,00:59:31,0.000,0.0,0.0,0.0
15/10/2022,01:00:31,0.000,0.0,0.0,0.0
15/10/2022,01:01:31,-0.000,0.0,0.0,0.0
15/10/2022,01:02:31,0.000,0.0,0.0,0.0
15/10/2022,01:03:31,-0.001,0.0,0.0,0.0
15/10/2022,01:04:31,-0.000,0.0,0.0,0.0
15/10/2022,01:05:32,-0.001,0.0,0.0,0.0
15/10/2022,01:06:31,0.001,0.0,0.0,0.0
15/10/2022,01:07:31,-0.000,0.0,0.0,0.0
15/10/2022,01:08:31,0.000,0.0,0.0,0.0
15/10/2022,01:09:32,-0.000,0.0,0.0,0.0
15/10/2022,01:10:31,0.000,0.0,0.0,0.0
15/10/2022,01:11:31,-0.000,0.0,0.0,0.0
15/10/2022,01:12:31,0.000,0.0,0.0,0.0
15/10/2022,01:13:31,-0.000,0.0,0.0,0.0
15/10/2022,01:14:31,-0.000,0.0,0.0,0.0
15/10/2022,01:15:31,-0.000,0.0,0.0,0.0
15/10/2022,01:16:32,-0.000,0.0,0.0,0.0
15/10/2022,01:17:32,-0.000,0.0,0.0,0.0
15/10/2022,01:18:32,-0.001,0.0,0.0,0.0
15/10/2022,01:19:31,0.001,0.0,0.0,0.0
15/10/2022,01:20:31,0.000,0.0,0.0,0.0
15/10/2022,01:21:32,-0.000,0.0,0.0,0.0
15/10/2022,01:22:31,0.001,0.0,0.0,0.0
15/10/2022,01:23:31,-0.000,0.0,0.0,0.0
15/10/2022,01:24:31,0.000,0.0,0.0,0.0
15/10/2022,01:25:32,-0.000,0.0,0.0,0.0
15/10/2022,01:26:31,-0.001,0.0,0.0,0.0
15/10/2022,01:27:32,-0.000,0.0,0.0,0.0
15/10/2022,01:28:32,-0.000,0.0,0.0,0.0
15/10/2022,01:29:32,-0.000,0.0,0.0,0.0
15/10/2022,01:30:31,-0.000,0.0,0.0,0.0
15/10/2022,01:31:32,-0.000,0.0,0.0,0.0
15/10/2022,01:32:31,-0.000,0.0,0.0,0.0
15/10/2022,01:33:31,-0.001,0.0,0.0,0.0
15/10/2022,01:34:31,0.001,0.0,0.0,0.0
15/10/2022,01:35:31,-0.001,0.0,0.0,0.0
15/10/2022,01:36:32,-0.001,0.0,0.0,0.0
15/10/2022,01:37:32,0.000,0.0,0.0,0.0
15/10/2022,01:38:31,-0.000,0.0,0.0,0.0
15/10/2022,01:39:31,-0.000,0.0,0.0,0.0
15/10/2022,01:40:32,-0.000,0.0,0.0,0.0
15/10/2022,01:41:32,0.000,0.0,0.0,0.0
15/10/2022,01:42:32,0.000,0.0,0.0,0.0
15/10/2022,01:43:33,-0.001,0.0,0.0,0.0
15/10/2022,01:44:32,-0.000,0.0,0.0,0.0
15/10/2022,01:45:31,-0.000,0.0,0.0,0.0
15/10/2022,01:46:31,-0.000,0.0,0.0,0.0
15/10/2022,01:47:31,0.000,0.0,0.0,0.0
15/10/2022,01:48:31,-0.000,0.0,0.0,0.0
15/10/2022,01:49:32,-0.000,0.0,0.0,0.0
15/10/2022,01:50:31,-0.000,0.0,0.0,0.0
15/10/2022,01:51:32,-0.000,0.0,0.0,0.0
15/10/2022,01:52:32,-0.000,0.0,0.0,0.0
15/10/2022,01:53:31,-0.001,0.0,0.0,0.0
15/10/2022,01:54:32,-0.001,0.0,0.0,0.0
15/10/2022,01:55:32,-0.000,0.0,0.0,0.0
15/10/2022,01:56:31,-0.000,0.0,0.0,0.0
15/10/2022,01:57:32,-0.000,0.0,0.0,0.0
15/10/2022,01:58:31,-0.001,0.0,0.0,0.0
15/10/2022,01:59:32,0.000,0.0,0.0,0.0
15/10/2022,02:00:31,-0.000,0.0,0.0,0.0
15/10/2022,02:01:32,-0.001,0.0,0.0,0.0
15/10/2022,02:02:31,-0.000,0.0,0.0,0.0
15/10/2022,02:03:32,-0.000,0.0,0.0,0.0
15/10/2022,02:04:32,-0.001,0.0,0.0,0.0
15/10/2022,02:05:31,-0.000,0.0,0.0,0.0
15/10/2022,02:06:31,-0.000,0.0,0.0,0.0
15/10/2022,02:07:32,-0.001,0.0,0.0,0.0
15/10/2022,02:08:31,-0.000,0.0,0.0,0.0
15/10/2022,02:09:32,-0.000,0.0,0.0,0.0
15/10/2022,02:10:32,0.000,0.0,0.0,0.0
15/10/2022,02:11:31,-0.000,0.0,0.0,0.0
15/10/2022,02:12:32,-0.001,0.0,0.0,0.0
15/10/2022,02:13:32,-0.000,0.0,0.0,0.0
15/10/2022,02:14:31,-0.000,0.0,0.0,0.0
15/10/2022,02:15:33,-0.001,0.0,0.0,0.0
15/10/2022,02:16:31,-0.001,0.0,0.0,0.0
15/10/2022,02:17:32,-0.001,0.0,0.0,0.0
15/10/2022,02:18:31,-0.001,0.0,0.0,0.0
15/10/2022,02:19:31,-0.001,0.0,0.0,0.0
15/10/2022,02:20:32,-0.000,0.0,0.0,0.0
15/10/2022,02:21:32,-0.001,0.0,0.0,0.0
15/10/2022,02:22:31,-0.001,0.0,0.0,0.0
15/10/2022,02:23:32,0.001,0.0,0.0,0.0
15/10/2022,02:24:32,-0.000,0.0,0.0,0.0
15/10/2022,02:25:31,-0.000,0.0,0.0,0.0
15/10/2022,02:26:32,-0.001,0.0,0.0,0.0
15/10/2022,02:27:31,-0.000,0.0,0.0,0.0
15/10/2022,02:28:32,-0.001,0.0,0.0,0.0
15/10/2022,02:29:31,-0.001,0.0,0.0,0.0
15/10/2022,02:30:32,-0.001,0.0,0.0,0.0
15/10/2022,02:31:32,-0.000,0.0,0.0,0.0
15/10/2022,02:32:31,-0.000,0.0,0.0,0.0
15/10/2022,02:33:31,-0.001,0.0,0.0,0.0
15/10/2022,02:34:31,0.001,0.0,0.0,0.0
15/10/2022,02:35:31,-0.000,0.0,0.0,0.0
15/10/2022,02:36:31,-0.001,0.0,0.0,0.0
15/10/2022,02:37:31,-0.000,0.0,0.0,0.0
15/10/2022,02:38:31,0.000,0.0,0.0,0.0
15/10/2022,02:39:32,-0.000,0.0,0.0,0.0
15/10/2022,02:40:31,-0.001,0.0,0.0,0.0
15/10/2022,02:41:32,-0.000,0.0,0.0,0.0
15/10/2022,02:42:31,-0.000,0.0,0.0,0.0
15/10/2022,02:43:31,-0.000,0.0,0.0,0.0
15/10/2022,02:44:31,-0.000,0.0,0.0,0.0
15/10/2022,02:45:31,-0.001,0.0,0.0,0.0
15/10/2022,02:46:32,-0.001,0.0,0.0,0.0
15/10/2022,02:47:32,-0.000,0.0,0.0,0.0
15/10/2022,02:48:31,0.000,0.0,0.0,0.0
15/10/2022,02:49:32,-0.001,0.0,0.0,0.0
15/10/2022,02:50:31,0.000,0.0,0.0,0.0
15/10/2022,02:51:31,-0.001,0.0,0.0,0.0
15/10/2022,02:52:31,0.000,0.0,0.0,0.0
15/10/2022,02:53:32,-0.001,0.0,0.0,0.0
15/10/2022,02:54:32,-0.001,0.0,0.0,0.0
15/10/2022,02:55:31,-0.002,0.0,0.0,0.0
15/10/2022,02:56:32,-0.001,0.0,0.0,0.0
15/10/2022,02:57:31,0.000,0.0,0.0,0.0
15/10/2022,02:58:32,-0.001,0.0,0.0,0.0
15/10/2022,02:59:32,-0.001,0.0,0.0,0.0
15/10/2022,03:00:31,-0.001,0.0,0.0,0.0
15/10/2022,03:01:32,-0.000,0.0,0.0,0.0
15/10/2022,03:02:31,-0.000,0.0,0.0,0.0
15/10/2022,03:03:32,-0.001,0.0,0.0,0.0
15/10/2022,03:04:31,-0.001,0.0,0.0,0.0
15/10/2022,03:05:31,-0.000,0.0,0.0,0.0
15/10/2022,03:06:32,-0.001,0.0,0.0,0.0
15/10/2022,03:07:31,0.000,0.0,0.0,0.0
15/10/2022,03:08:31,-0.001,0.0,0.0,0.0
15/10/2022,03:09:32,0.000,0.0,0.0,0.0
15/10/2022,03:10:32,-0.000,0.0,0.0,0.0
15/10/2022,03:11:31,0.001,0.0,0.0,0.0
15/10/2022,03:12:31,-0.001,0.0,0.0,0.0
15/10/2022,03:13:31,-0.001,0.0,0.0,0.0
15/10/2022,03:14:32,-0.001,0.0,0.0,0.0
15/10/2022,03:15:31,-0.001,0.0,0.0,0.0
15/10/2022,03:16:34,-0.000,0.0,0.0,0.0
15/10/2022,03:17:31,-0.000,0.0,0.0,0.0
15/10/2022,03:18:31,-0.001,0.0,0.0,0.0
15/10/2022,03:19:32,-0.001,0.0,0.0,0.0
15/10/2022,03:20:32,-0.001,0.0,0.0,0.0
15/10/2022,03:21:31,-0.001,0.0,0.0,0.0
15/10/2022,03:22:31,-0.000,0.0,0.0,0.0
15/10/2022,03:23:31,-0.002,0.0,0.0,0.0
15/10/2022,03:24:32,-0.001,0.0,0.0,0.0
15/10/2022,03:25:32,-0.000,0.0,0.0,0.0
15/10/2022,03:26:31,-0.001,0.0,0.0,0.0
15/10/2022,03:27:31,-0.001,0.0,0.0,0.0
15/10/2022,03:28:31,-0.001,0.0,0.0,0.0
15/10/2022,03:29:32,-0.001,0.0,0.0,0.0
15/10/2022,03:30:32,-0.001,0.0,0.0,0.0
15/10/2022,03:31:31,-0.001,0.0,0.0,0.0
15/10/2022,03:32:32,-0.000,0.0,0.0,0.0
15/10/2022,03:33:32,-0.001,0.0,0.0,0.0
15/10/2022,03:34:31,0.000,0.0,0.0,0.0
15/10/2022,03:35:31,-0.000,0.0,0.0,0.0
15/10/2022,03:36:32,-0.001,0.0,0.0,0.0
15/10/2022,03:37:31,-0.000,0.0,0.0,0.0
15/10/2022,03:38:32,-0.001,0.0,0.0,0.0
15/10/2022,03:39:31,-0.001,0.0,0.0,0.0
15/10/2022,03:40:31,-0.001,0.0,0.0,0.0
15/10/2022,03:41:32,-0.002,0.0,0.0,0.0
15/10/2022,03:42:32,-0.001,0.0,0.0,0.0
15/10/2022,03:43:31,-0.001,0.0,0.0,0.0
15/10/2022,03:44:31,0.000,0.0,0.0,0.0
15/10/2022,03:45:31,-0.001,0.0,0.0,0.0
15/10/2022,03:46:31,-0.001,0.0,0.0,0.0
15/10/2022,03:47:32,-0.001,0.0,0.0,0.0
15/10/2022,03:48:31,-0.000,0.0,0.0,0.0
15/10/2022,03:49:32,-0.001,0.0,0.0,0.0
15/10/2022,03:50:33,-0.001,0.0,0.0,0.0
15/10/2022,03:51:31,-0.001,0.0,0.0,0.0
15/10/2022,03:52:32,-0.002,0.0,0.0,0.0
15/10/2022,03:53:32,-0.001,0.0,0.0,0.0
15/10/2022,03:54:31,-0.001,0.0,0.0,0.0
15/10/2022,03:55:31,0.000,0.0,0.0,0.0
15/10/2022,03:56:32,-0.000,0.0,0.0,0.0
15/10/2022,03:57:32,-0.002,0.0,0.0,0.0
15/10/2022,03:58:31,-0.001,0.0,0.0,0.0
15/10/2022,03:59:32,-0.001,0.0,0.0,0.0
15/10/2022,04:00:31,-0.001,0.0,0.0,0.0
15/10/2022,04:01:32,-0.001,0.0,0.0,0.0
15/10/2022,04:02:31,-0.000,0.0,0.0,0.0
15/10/2022,04:03:32,0.000,0.0,0.0,0.0
15/10/2022,04:04:31,-0.002,0.0,0.0,0.0
15/10/2022,04:05:32,-0.001,0.0,0.0,0.0
15/10/2022,04:06:31,-0.000,0.0,0.0,0.0
15/10/2022,04:07:32,-0.001,0.0,0.0,0.0
15/10/2022,04:08:32,-0.001,0.0,0.0,0.0
15/10/2022,04:09:31,-0.002,0.0,0.0,0.0
15/10/2022,04:10:32,0.000,0.0,0.0,0.0
15/10/2022,04:11:31,-0.001,0.0,0.0,0.0
15/10/2022,04:12:32,0.000,0.0,0.0,0.0
15/10/2022,04:13:31,-0.002,0.0,0.0,0.0
15/10/2022,04:14:32,-0.001,0.0,0.0,0.0
15/10/2022,04:15:32,-0.001,0.0,0.0,0.0
15/10/2022,04:16:31,-0.001,0.0,0.0,0.0
15/10/2022,04:17:31,-0.001,0.0,0.0,0.0
15/10/2022,04:18:31,0.000,0.0,0.0,0.0
15/10/2022,04:19:32,-0.001,0.0,0.0,0.0
15/10/2022,04:20:31,-0.000,0.0,0.0,0.0
15/10/2022,04:21:32,-0.001,0.0,0.0,0.0
15/10/2022,04:22:31,-0.002,0.0,0.0,0.0
15/10/2022,04:23:32,-0.000,0.0,0.0,0.0
15/10/2022,04:24:32,-0.001,0.0,0.0,0.0
15/10/2022,04:25:32,-0.001,0.0,0.0,0.0
15/10/2022,04:26:31,-0.002,0.0,0.0,0.0
15/10/2022,04:27:32,-0.001,0.0,0.0,0.0
15/10/2022,04:28:31,-0.001,0.0,0.0,0.0
15/10/2022,04:29:31,-0.001,0.0,0.0,0.0
15/10/2022,04:30:32,-0.001,0.0,0.0,0.0
15/10/2022,04:31:32,-0.001,0.0,0.0,0.0
15/10/2022,04:32:31,-0.001,0.0,0.0,0.0
15/10/2022,04:33:32,0.000,0.0,0.0,0.0
15/10/2022,04:35:49,-0.000,0.0,0.0,0.0
15/10/2022,04:36:31,-0.001,0.0,0.0,0.0
15/10/2022,04:37:31,0.000,0.0,0.0,0.0
15/10/2022,04:38:32,0.000,0.0,0.0,0.0
15/10/2022,04:39:31,-0.001,0.0,0.0,0.0
15/10/2022,04:40:31,-0.001,0.0,0.0,0.0
15/10/2022,04:41:32,-0.001,0.0,0.0,0.0
15/10/2022,04:42:31,-0.001,0.0,0.0,0.0
15/10/2022,04:43:32,-0.001,0.0,0.0,0.0
15/10/2022,04:44:31,-0.000,0.0,0.0,0.0
15/10/2022,04:45:32,-0.001,0.0,0.0,0.0
15/10/2022,04:46:31,-0.001,0.0,0.0,0.0
15/10/2022,04:47:32,-0.001,0.0,0.0,0.0
15/10/2022,04:48:31,-0.001,0.0,0.0,0.0
15/10/2022,04:49:31,-0.001,0.0,0.0,0.0
15/10/2022,04:50:32,-0.001,0.0,0.0,0.0
15/10/2022,04:51:31,-0.001,0.0,0.0,0.0
15/10/2022,04:52:32,-0.001,0.0,0.0,0.0
15/10/2022,04:53:31,-0.001,0.0,0.0,0.0
15/10/2022,04:54:31,-0.002,0.0,0.0,0.0
15/10/2022,04:55:32,-0.001,0.0,0.0,0.0
15/10/2022,04:56:32,-0.002,0.0,0.0,0.0
15/10/2022,04:57:32,-0.000,0.0,0.0,0.0
15/10/2022,04:58:32,-0.001,0.0,0.0,0.0
15/10/2022,04:59:32,-0.001,0.0,0.0,0.0
15/10/2022,05:00:32,-0.001,0.0,0.0,0.0
15/10/2022,05:01:31,-0.001,0.0,0.0,0.0
15/10/2022,05:02:31,0.000,0.0,0.0,0.0
15/10/2022,05:03:32,-0.000,0.0,0.0,0.0
15/10/2022,05:04:32,-0.001,0.0,0.0,0.0
15/10/2022,05:05:32,-0.001,0.0,0.0,0.0
15/10/2022,05:06:31,-0.001,0.0,0.0,0.0
15/10/2022,05:07:32,-0.001,0.0,0.0,0.0
15/10/2022,05:08:32,-0.002,0.0,0.0,0.0
15/10/2022,05:09:32,-0.000,0.0,0.0,0.0
15/10/2022,05:10:32,-0.001,0.0,0.0,0.0
15/10/2022,05:11:31,-0.002,0.0,0.0,0.0
15/10/2022,05:12:31,-0.001,0.0,0.0,0.0
15/10/2022,05:13:32,-0.001,0.0,0.0,0.0
15/10/2022,05:14:32,-0.000,0.0,0.0,0.0
15/10/2022,05:15:31,-0.001,0.0,0.0,0.0
15/10/2022,05:16:32,-0.001,0.0,0.0,0.0
15/10/2022,05:17:32,0.000,0.0,0.0,0.0
15/10/2022,05:18:31,-0.001,0.0,0.0,0.0
15/10/2022,05:19:32,-0.001,0.0,0.0,0.0
15/10/2022,05:20:32,0.000,0.0,0.0,0.0
15/10/2022,05:21:31,-0.001,0.0,0.0,0.0
15/10/2022,05:22:32,-0.001,0.0,0.0,0.0
15/10/2022,05:23:31,-0.000,0.0,0.0,0.0
15/10/2022,05:24:33,-0.001,0.0,0.0,0.0
15/10/2022,05:25:32,-0.002,0.0,0.0,0.0
15/10/2022,05:26:31,-0.002,0.0,0.0,0.0
15/10/2022,05:27:31,-0.001,0.0,0.0,0.0
15/10/2022,05:28:32,-0.001,0.0,0.0,0.0
15/10/2022,05:29:31,-0.002,0.0,0.0,0.0
15/10/2022,05:30:32,0.000,0.0,0.0,0.0
15/10/2022,05:31:32,-0.002,0.0,0.0,0.0
15/10/2022,05:32:32,-0.001,0.0,0.0,0.0
15/10/2022,05:33:32,-0.001,0.0,0.0,0.0
15/10/2022,05:34:32,-0.001,0.0,0.0,0.0
15/10/2022,05:35:32,-0.001,0.0,0.0,0.0
15/10/2022,05:36:31,-0.001,0.0,0.0,0.0
15/10/2022,05:37:31,-0.001,0.0,0.0,0.0
15/10/2022,05:38:31,-0.001,0.0,0.0,0.0
15/10/2022,05:39:32,-0.001,0.0,0.0,0.0
15/10/2022,05:40:31,-0.001,0.0,0.0,0.0
15/10/2022,05:41:32,-0.001,0.0,0.0,0.0
15/10/2022,05:42:31,-0.001,0.0,0.0,0.0
15/10/2022,05:43:32,-0.002,0.0,0.0,0.0
15/10/2022,05:44:32,-0.001,0.0,0.0,0.0
15/10/2022,05:45:31,-0.001,0.0,0.0,0.0
15/10/2022,05:46:32,-0.001,0.0,0.0,0.0
15/10/2022,05:47:31,-0.001,0.0,0.0,0.0
15/10/2022,05:48:31,-0.001,0.0,0.0,0.0
15/10/2022,05:49:32,-0.002,0.0,0.0,0.0
15/10/2022,05:50:31,0.000,0.0,0.0,0.0
15/10/2022,05:51:32,-0.002,0.0,0.0,0.0
15/10/2022,05:52:31,-0.002,0.0,0.0,0.0
15/10/2022,05:53:32,-0.001,0.0,0.0,0.0
15/10/2022,05:54:31,-0.002,0.0,0.0,0.0
15/10/2022,05:55:32,-0.001,0.0,0.0,0.0
15/10/2022,05:56:32,-0.001,0.0,0.0,0.0
15/10/2022,05:57:31,-0.001,0.0,0.0,0.0
15/10/2022,05:58:32,-0.001,0.0,0.0,0.0
15/10/2022,05:59:32,-0.001,0.0,0.0,0.0
15/10/2022,06:00:31,0.001,0.0,0.0,0.0
15/10/2022,06:01:32,-0.001,0.0,0.0,0.0
15/10/2022,06:02:31,-0.001,0.0,0.0,0.0
15/10/2022,06:03:31,-0.001,0.0,0.0,0.0
15/10/2022,06:04:32,-0.001,0.0,0.0,0.0
15/10/2022,06:05:32,-0.002,0.0,0.0,0.0
15/10/2022,06:06:31,-0.002,0.0,0.0,0.0
15/10/2022,06:07:32,-0.000,0.0,0.0,0.0
15/10/2022,06:08:31,-0.000,0.0,0.0,0.0
15/10/2022,06:09:32,-0.001,0.0,0.0,0.0
15/10/2022,06:10:32,-0.000,0.0,0.0,0.0
15/10/2022,06:11:31,-0.001,0.0,0.0,0.0
15/10/2022,06:12:32,-0.001,0.0,0.0,0.0
15/10/2022,06:13:32,-0.000,0.0,0.0,0.0
15/10/2022,06:14:32,0.000,0.0,0.0,0.0
15/10/2022,06:15:32,-0.000,0.0,0.0,0.0
15/10/2022,06:16:31,-0.001,0.0,0.0,0.0
15/10/2022,06:17:32,-0.000,0.0,0.0,0.0
15/10/2022,06:18:32,0.000,0.0,0.0,0.0
15/10/2022,06:19:31,-0.001,0.0,0.0,0.0
15/10/2022,06:20:31,0.000,0.0,0.0,0.0
15/10/2022,06:21:32,0.000,0.0,0.0,0.0
15/10/2022,06:22:32,0.000,0.0,0.0,0.0
15/10/2022,06:23:32,0.000,0.0,0.0,0.0
15/10/2022,06:24:31,-0.001,0.0,0.0,0.0
15/10/2022,06:25:32,0.001,0.0,0.0,0.0
15/10/2022,06:26:32,0.001,0.0,0.0,0.0
15/10/2022,06:27:32,0.001,0.0,0.0,0.0
15/10/2022,06:28:32,0.001,0.0,0.0,0.0
15/10/2022,06:29:31,0.001,0.0,0.0,0.0
15/10/2022,06:30:32,0.002,0.0,0.0,0.0
15/10/2022,06:31:33,0.002,0.0,0.0,0.0
15/10/2022,06:32:31,0.002,0.0,0.0,0.0
15/10/2022,06:33:32,0.003,0.0,0.0,0.0
15/10/2022,06:34:32,0.004,0.0,0.0,0.0
15/10/2022,06:35:31,0.002,0.0,0.0,0.0
15/10/2022,06:36:32,0.004,0.0,0.0,0.0
15/10/2022,06:37:32,0.004,0.0,0.0,0.0
15/10/2022,06:38:31,0.004,0.0,0.0,0.0
15/10/2022,06:39:31,0.005,0.0,0.0,0.0
15/10/2022,06:40:32,0.004,0.0,0.0,0.0
15/10/2022,06:41:32,0.004,0.0,0.0,0.0
15/10/2022,06:42:32,0.006,0.0,0.0,0.0
15/10/2022,06:43:31,0.004,0.0,0.0,0.0
15/10/2022,06:44:32,0.006,0.0,0.0,0.0
15/10/2022,06:45:32,0.006,0.0,0.0,0.0
15/10/2022,06:46:32,0.006,0.0,0.0,0.0
15/10/2022,06:47:32,0.006,0.0,0.0,0.0
15/10/2022,06:48:32,0.007,0.0,0.0,0.0
15/10/2022,06:49:32,0.008,0.0,0.0,0.0
15/10/2022,06:50:32,0.008,0.0,0.001,0.001
15/10/2022,06:51:32,0.007,0.0,0.001,0.0
15/10/2022,06:52:32,0.009,0.0,0.001,0.0
15/10/2022,06:53:31,0.009,0.0,0.001,0.0
15/10/2022,06:54:32,0.010,0.0,0.001,0.0
15/10/2022,06:55:32,0.010,0.0,0.001,0.0
15/10/2022,06:56:32,0.011,0.0,0.001,0.0
15/10/2022,06:57:32,0.010,0.0,0.002,0.001
15/10/2022,06:58:31,0.012,0.0,0.002,0.0
15/10/2022,06:59:31,0.012,0.0,0.002,0.0
15/10/2022,07:00:32,0.012,0.0,0.002,0.0
15/10/2022,07:01:32,0.013,0.0,0.002,0.0
15/10/2022,07:02:32,0.014,0.0,0.003,0.001
15/10/2022,07:03:32,0.014,0.0,0.003,0.0
15/10/2022,07:04:32,0.014,0.0,0.003,0.0
15/10/2022,07:05:32,0.016,0.0,0.003,0.0
15/10/2022,07:06:32,0.017,0.0,0.004,0.001
15/10/2022,07:07:32,0.016,0.0,0.004,0.0
15/10/2022,07:08:32,0.018,0.0,0.004,0.0
15/10/2022,07:09:31,0.018,0.0,0.005,0.001
15/10/2022,07:10:32,0.019,0.0,0.005,0.0
15/10/2022,07:11:32,0.019,0.0,0.005,0.0
15/10/2022,07:12:31,0.020,0.0,0.006,0.001
15/10/2022,07:13:32,0.020,0.0,0.006,0.0
15/10/2022,07:14:32,0.022,0.0,0.006,0.0
15/10/2022,07:15:32,0.023,0.0,0.007,0.001
15/10/2022,07:16:32,0.024,0.0,0.007,0.0
15/10/2022,07:17:32,0.024,0.0,0.007,0.0
15/10/2022,07:18:31,0.025,0.0,0.008,0.001
15/10/2022,07:19:32,0.026,0.0,0.008,0.0
15/10/2022,07:20:33,0.027,0.0,0.009,0.001
15/10/2022,07:21:32,0.028,0.0,0.009,0.0
15/10/2022,07:22:32,0.028,0.0,0.01,0.001
15/10/2022,07:23:32,0.030,0.0,0.01,0.0
15/10/2022,07:24:32,0.031,0.0,0.011,0.001
15/10/2022,07:25:32,0.031,0.0,0.011,0.0
15/10/2022,07:26:32,0.032,0.0,0.012,0.001
15/10/2022,07:27:32,0.034,0.0,0.012,0.0
15/10/2022,07:28:31,0.035,0.0,0.013,0.001
15/10/2022,07:29:32,0.037,0.0,0.013,0.0
15/10/2022,07:30:31,0.038,0.0,0.014,0.001
15/10/2022,07:31:31,0.039,0.0,0.015,0.001
15/10/2022,07:32:32,0.039,0.0,0.015,0.0
15/10/2022,07:33:32,0.040,0.0,0.016,0.001
15/10/2022,07:34:32,0.041,0.0,0.017,0.001
15/10/2022,07:35:32,0.042,0.0,0.017,0.0
15/10/2022,07:36:32,0.044,0.0,0.018,0.001
15/10/2022,07:37:32,0.045,0.0,0.019,0.001
15/10/2022,07:38:32,0.047,0.0,0.019,0.0
15/10/2022,07:40:49,0.049,0.0,0.021,0.002
15/10/2022,07:41:32,0.050,0.0,0.022,0.001
15/10/2022,07:42:32,0.052,0.0,0.023,0.001
15/10/2022,07:43:32,0.053,0.0,0.024,0.001
15/10/2022,07:44:32,0.053,0.0,0.024,0.0
15/10/2022,07:45:32,0.056,0.0,0.025,0.001
15/10/2022,07:46:32,0.057,0.0,0.026,0.001
15/10/2022,07:47:32,0.059,0.0,0.027,0.001
15/10/2022,07:48:32,0.060,0.0,0.028,0.001
15/10/2022,07:49:32,0.061,0.0,0.029,0.001
15/10/2022,07:50:32,0.063,0.0,0.03,0.001
15/10/2022,07:51:32,0.064,0.0,0.031,0.001
15/10/2022,07:52:32,0.066,0.0,0.032,0.001
15/10/2022,07:53:32,0.067,0.0,0.033,0.001
15/10/2022,07:54:33,0.069,0.0,0.035,0.002
15/10/2022,07:55:32,0.071,0.0,0.036,0.001
15/10/2022,07:56:32,0.072,0.0,0.037,0.001
15/10/2022,07:57:32,0.074,0.0,0.038,0.001
15/10/2022,07:58:31,0.076,0.0,0.039,0.001
15/10/2022,07:59:32,0.077,0.0,0.041,0.002
15/10/2022,08:00:32,0.079,0.0,0.042,0.001
15/10/2022,08:01:32,0.080,0.0,0.043,0.001
15/10/2022,08:02:32,0.081,0.0,0.045,0.002
15/10/2022,08:03:32,0.083,0.0,0.046,0.001
15/10/2022,08:04:32,0.085,0.0,0.047,0.001
15/10/2022,08:05:32,0.087,0.0,0.049,0.002
15/10/2022,08:06:32,0.090,0.0,0.05,0.001
15/10/2022,08:07:32,0.090,0.0,0.052,0.002
15/10/2022,08:08:33,0.092,0.0,0.053,0.001
15/10/2022,08:09:32,0.094,0.0,0.055,0.002
15/10/2022,08:10:32,0.096,0.0,0.056,0.001
15/10/2022,08:11:32,0.097,0.0,0.058,0.002
15/10/2022,08:12:32,0.098,0.0,0.06,0.002
15/10/2022,08:13:32,0.099,0.0,0.061,0.001
15/10/2022,08:14:32,0.103,0.0,0.063,0.002
15/10/2022,08:15:32,0.107,0.0,0.065,0.002
15/10/2022,08:16:32,0.108,0.0,0.067,0.002
15/10/2022,08:17:32,0.111,0.0,0.068,0.001
15/10/2022,08:18:32,0.113,0.0,0.07,0.002
15/10/2022,08:19:32,0.115,0.0,0.072,0.002
15/10/2022,08:20:32,0.116,0.0,0.074,0.002
15/10/2022,08:21:32,0.117,0.0,0.076,0.002
15/10/2022,08:22:32,0.119,0.0,0.078,0.002
15/10/2022,08:23:32,0.119,0.0,0.08,0.002
15/10/2022,08:24:32,0.118,0.0,0.082,0.002
15/10/2022,08:25:32,0.112,0.0,0.084,0.002
15/10/2022,08:26:32,0.111,0.0,0.086,0.002
15/10/2022,08:27:32,0.113,0.0,0.087,0.001
15/10/2022,08:28:32,0.116,0.0,0.089,0.002
15/10/2022,08:29:32,0.119,0.0,0.091,0.002
15/10/2022,08:30:32,0.121,0.0,0.093,0.002
15/10/2022,08:31:32,0.120,0.0,0.095,0.002
15/10/2022,08:32:32,0.118,0.0,0.097,0.002
15/10/2022,08:33:32,0.118,0.0,0.099,0.002
15/10/2022,08:34:32,0.119,0.0,0.101,0.002
15/10/2022,08:35:32,0.129,0.0,0.103,0.002
15/10/2022,08:36:32,0.128,0.0,0.106,0.003
15/10/2022,08:37:31,0.129,0.0,0.108,0.002
15/10/2022,08:38:32,0.134,0.0,0.11,0.002
15/10/2022,08:39:32,0.138,0.0,0.112,0.002
15/10/2022,08:40:32,0.143,0.0,0.115,0.003
15/10/2022,08:41:32,0.146,0.0,0.117,0.002
15/10/2022,08:42:32,0.149,0.0,0.119,0.002
15/10/2022,08:43:32,0.152,0.0,0.122,0.003
15/10/2022,08:44:32,0.154,0.0,0.124,0.002
15/10/2022,08:45:32,0.161,0.0,0.127,0.003
15/10/2022,08:46:32,0.159,0.0,0.13,0.003
15/10/2022,08:47:32,0.167,0.0,0.133,0.003
15/10/2022,08:48:32,0.161,0.0,0.135,0.002
15/10/2022,08:49:32,0.163,0.0,0.138,0.003
15/10/2022,08:50:32,0.166,0.0,0.141,0.003
15/10/2022,08:51:32,0.167,0.0,0.143,0.002
15/10/2022,08:52:32,0.159,0.0,0.146,0.003
15/10/2022,08:53:32,0.154,0.0,0.149,0.003
15/10/2022,08:54:32,0.146,0.0,0.151,0.002
15/10/2022,08:55:35,0.142,0.0,0.154,0.003
15/10/2022,08:56:32,0.142,0.0,0.156,0.002
15/10/2022,08:57:32,0.149,0.0,0.158,0.002
15/10/2022,08:58:32,0.162,0.0,0.161,0.003
15/10/2022,08:59:32,0.173,0.0,0.164,0.003
15/10/2022,09:00:32,0.193,0.0,0.167,0.003
15/10/2022,09:01:32,0.197,0.0,0.17,0.003
15/10/2022,09:02:32,0.220,0.0,0.174,0.004
15/10/2022,09:03:33,0.234,1.0,0.178,0.004
15/10/2022,09:04:32,0.215,0.0,0.181,0.003
15/10/2022,09:05:32,0.241,1.0,0.185,0.004
15/10/2022,09:06:32,0.245,1.0,0.189,0.004
15/10/2022,09:07:32,0.248,1.0,0.193,0.004
15/10/2022,09:08:32,0.249,1.0,0.197,0.004
15/10/2022,09:09:32,0.255,1.0,0.202,0.005
15/10/2022,09:10:32,0.259,1.0,0.206,0.004
15/10/2022,09:11:32,0.261,1.0,0.21,0.004
15/10/2022,09:12:32,0.264,1.0,0.215,0.005
15/10/2022,09:13:32,0.268,1.0,0.219,0.004
15/10/2022,09:14:33,0.270,1.0,0.223,0.004
15/10/2022,09:15:32,0.272,1.0,0.228,0.005
15/10/2022,09:16:32,0.271,1.0,0.233,0.005
15/10/2022,09:17:32,0.277,1.0,0.237,0.004
15/10/2022,09:18:32,0.277,1.0,0.242,0.005
15/10/2022,09:19:32,0.254,1.0,0.246,0.004
15/10/2022,09:20:32,0.249,1.0,0.25,0.004
15/10/2022,09:21:32,0.253,1.0,0.254,0.004
15/10/2022,09:22:32,0.254,1.0,0.259,0.005
15/10/2022,09:23:32,0.254,1.0,0.263,0.004
15/10/2022,09:24:32,0.254,1.0,0.267,0.004
15/10/2022,09:25:32,0.254,1.0,0.271,0.004
15/10/2022,09:26:32,0.261,1.0,0.276,0.005
15/10/2022,09:27:32,0.296,1.0,0.28,0.004
15/10/2022,09:28:32,0.315,1.0,0.285,0.005
15/10/2022,09:29:32,0.313,1.0,0.291,0.006
15/10/2022,09:30:32,0.323,1.0,0.296,0.005
15/10/2022,09:31:32,0.327,1.0,0.301,0.005
15/10/2022,09:32:32,0.287,1.0,0.306,0.005
15/10/2022,09:33:32,0.298,1.0,0.312,0.006
15/10/2022,09:34:32,0.338,1.0,0.317,0.005
15/10/2022,09:35:32,0.326,1.0,0.322,0.005
15/10/2022,09:36:33,0.344,1.0,0.328,0.006
15/10/2022,09:37:32,0.347,1.0,0.334,0.006
15/10/2022,09:38:32,0.350,1.0,0.339,0.005
15/10/2022,09:39:32,0.355,1.0,0.345,0.006
15/10/2022,09:40:32,0.358,1.0,0.351,0.006
15/10/2022,09:41:32,0.363,1.0,0.357,0.006
15/10/2022,09:42:32,0.367,1.0,0.363,0.006
15/10/2022,09:43:32,0.368,1.0,0.369,0.006
15/10/2022,09:44:32,0.378,1.0,0.376,0.007
15/10/2022,09:45:32,0.384,1.0,0.382,0.006
15/10/2022,09:46:32,0.375,1.0,0.388,0.006
15/10/2022,09:47:32,0.363,1.0,0.394,0.006
15/10/2022,09:48:32,0.330,1.0,0.4,0.006
15/10/2022,09:49:32,0.323,1.0,0.405,0.005
15/10/2022,09:50:32,0.304,1.0,0.411,0.006
15/10/2022,09:51:32,0.293,1.0,0.416,0.005
15/10/2022,09:52:33,0.276,1.0,0.42,0.004
15/10/2022,09:53:32,0.260,1.0,0.425,0.005
15/10/2022,09:54:32,0.258,1.0,0.429,0.004
15/10/2022,09:55:32,0.272,1.0,0.433,0.004
15/10/2022,09:56:32,0.297,1.0,0.438,0.005
15/10/2022,09:57:33,0.301,1.0,0.443,0.005
15/10/2022,09:58:32,0.302,1.0,0.448,0.005
15/10/2022,09:59:32,0.298,1.0,0.453,0.005
15/10/2022,10:00:32,0.301,1.0,0.458,0.005
15/10/2022,10:01:32,0.303,1.0,0.463,0.005
15/10/2022,10:02:32,0.310,1.0,0.468,0.005
15/10/2022,10:03:32,0.303,1.0,0.473,0.005
15/10/2022,10:04:32,0.301,1.0,0.478,0.005
15/10/2022,10:05:32,0.308,1.0,0.484,0.006